Simultaneous Nadir Overpasses (SNOs) Predictions

Prediction of SNOs between LANDSAT-8 and NPP Satellite Orbit:

Table of predicted SNOs for the next 14.0 days since TLE Epoch: 10/19/2024
Index Date (LANDSAT-8) Time (LANDSAT-8) Lat,Lon (LANDSAT-8) SZA (LANDSAT-8 ) Date (NPP) Time (NPP) Lat,Lon (NPP) SZA (NPP ) Distance(km) Time Diff (sec)
1 10/21/2024 15:31:25 70.08, -56.43 81.00 10/21/2024 15:31:01 70.08, -56.48 80.99 2.36 24
2 10/21/2024 16:20:56 -69.92, 110.98 99.16 10/21/2024 16:21:42 -69.94, 111.04 99.14 3.26 46
3 10/24/2024 06:58:24 -70.14,-108.09 98.02 10/24/2024 06:57:11 -70.12,-108.09 98.05 2.71 73
4 10/24/2024 07:47:51 70.03, 59.39 81.88 10/24/2024 07:47:56 70.05, 59.32 81.90 3.52 5
5 10/24/2024 08:37:23 -69.81,-133.28 98.33 10/24/2024 08:38:35 -69.80,-132.99 98.34 11.01 72
6 10/26/2024 23:14:49 -70.10, 7.75 97.15 10/26/2024 23:14:07 -70.12, 7.68 97.13 3.48 42
7 10/27/2024 00:04:16 69.98, 175.23 82.75 10/27/2024 00:04:51 70.00, 175.17 82.77 3.02 35
8 10/29/2024 14:41:37 70.44, -43.47 84.08 10/29/2024 14:40:26 70.50, -44.47 84.14 37.49 71
9 10/29/2024 15:31:12 -70.06, 123.61 96.29 10/29/2024 15:31:01 -70.04, 123.56 96.31 3.00 11
10 10/29/2024 16:20:39 69.94, -68.92 83.60 10/29/2024 16:21:45 69.92, -68.95 83.58 2.34 66
11 11/01/2024 06:58:04 70.09, 71.93 84.59 11/01/2024 06:57:13 70.09, 71.95 84.59 0.94 51
12 11/01/2024 07:47:34 -69.98,-120.59 95.51 11/01/2024 07:47:55 -70.00,-120.60 95.49 1.81 21



Historial Predications of SNOs between LANDSAT-8 and NPP
